Location: Dreilärchen
(47.9312°N, 8.6113°E)
Time: 00:16:38
(UTC+00:00)

Cosmos 2297 - Pass Details

Date: 26 May 2022
Orbit: 834 x 859 km, 71.0° (Epoch: 02 July)

Event Time Altitude Azimuth Distance (km) Brightness Sun altitude
Rises 01:25:28 0° 331° (NNW) 3,446 7.3 -15.7°
Reaches altitude 10° 01:27:56 10° 331° (NNW) 2,506 6.6 -15.5°
Maximum altitude 01:33:42 84° 245° (WSW) 871 3.7 -15.0°
Drops below altitude 10° 01:39:26 10° 158° (SSE) 2,485 5.8 -14.5°
Enters shadow 01:41:47 - 157° (SSE) 3,377 6.5 -14.2°
